Home > Weather > Mexico City > Past weeks

Flag for Mexico Weather for the Past 2 Weeks in Mexico City, Federal District, Mexico

Now
46 °F

Clear.


Feels Like: 42 °F
Forecast: 43 / 67 °F
Wind: 8 mph from East

Location: Mexico City / Licenci

Current Time: Feb 6, 2016 at 6:47:20 AM

Latest Report: Feb 6, 2016 at 5:45 AM


Visibility: 5 mi

Pressure: 29.92 "Hg (22.78 "Hg at 2241m altitude)

Humidity: 62%

Dew point: 34 °F

Location of Mexico CityLocation

Historic Weather in Mexico City — Graph

°F

Mexico City Temperature Yesterday

Maximum temperature yesterday: 73 °F (at 3:46 PM)
Minimum temperature yesterday: 39 °F (at 6:52 AM)
Average temperature yesterday: 57 °F

High & Low Weather Summary for the Past Weeks

 TemperatureHumidityPressure
High79 °F (Feb 1, 3:45 PM)100% (Feb 4, 6:47 AM)30.45 "Hg (Feb 4, 6:47 AM)
Low37 °F (Jan 24, 7:28 AM)9% (Jan 23, 3:45 PM)29.60 "Hg (Feb 3, 2:45 PM)
Average56 °F42%30.16 "Hg
* Reported Jan 22 5:45 AM — Feb 6 5:45 AM, Mexico City, Weather by CustomWeather, © 2016

Note: Actual official high and low records may vary slightly from our data, if they occured in-between our weather recording intervals... More about our weather records

Advertising

Mexico City Weather History for the Previous 24 Hours

 ConditionsComfort  
Time TempWeatherWind HumidityBarometerVisibility
5:45 AM
Sat, Feb 6
46 °FClear.8 mph62%29.92 "Hg5 mi
4:45 AM48 °FClear.No wind58%30.34 "Hg5 mi
3:45 AM48 °FClear.5 mph58%30.33 "Hg5 mi
2:52 AM50 °FClear.5 mph50%29.90 "Hg4 mi
1:54 AM52 °FClear.6 mph50%30.35 "Hg4 mi
12:53 AM55 °FClear.5 mph47%30.35 "Hg5 mi
11:45 PM
Fri, Feb 5
61 °FClear.3 mph39%29.90 "Hg7 mi
10:52 PM63 °FClear.5 mph39%30.34 "Hg7 mi
9:46 PM64 °FClear.6 mph30%30.33 "Hg8 mi
8:50 PM66 °FClear.6 mph28%29.95 "Hg8 mi
7:53 PM64 °FClear.3 mph40%30.29 "Hg8 mi
4:45 PM73 °FSunny.No wind17%30.22 "Hg7 mi
3:46 PM73 °FSunny.5 mph22%30.23 "Hg8 mi
2:46 PM72 °FSunny.6 mph23%29.88 "Hg8 mi
1:46 PM70 °FSunny.6 mph29%30.30 "Hg7 mi
11:47 AM66 °FSunny.No wind35%29.99 "Hg5 mi
10:52 AM57 °FSunny.3 mph41%30.41 "Hg5 mi
9:53 AM52 °FSunny.5 mph50%30.43 "Hg6 mi
8:48 AM46 °FSunny.6 mph62%30.10 "Hg6 mi
8:23 AM43 °FSunny.6 mph71%30.42 "Hg6 mi
7:48 AM41 °FSunny.7 mph76%30.41 "Hg7 mi
7:21 AM39 °FSunny.5 mph81%30.41 "Hg7 mi
6:52 AM39 °FClear.3 mph75%30.40 "Hg8 mi
Weather by CustomWeather, © 2016

See weather overviewHow to use our weather pages